User: anonymous   Login
Location: Veyrier
(46.1830°N, 6.2000°E)
Time: 15:56:23
(UTC+02:00)
Language:

Iridium 98 - Orbit

View from above orbital plane
View from above orbital plane
View from above satellite
View from above satellite

Ground track
Ground track

The orbit data is extracted from the following two-line orbital elements,

1 27451U 02031B   16181.54264759 -.00000015  00000-0 -12405-4 0  9998
2 27451  86.3970 169.6323 0002136  83.0789  38.1789 14.34217501740758
Epoch (UTC): 29 June 2016 13:01:24
Eccentricity: 0.0002136
inclination: 86.3970°
perigee height: 776 km
apogee height: 779 km
right ascension of ascending node: 169.6323°
argument of perigee: 83.0789°
revolutions per day: 14.34217501
mean anomaly at epoch: 38.1789°
orbit number at epoch: 74075

The dashed part of the orbit path shows where the satellite is in the earth's shadow,  

DLR